Location: ???? ???? ?????
(31.2680°N, 31.7283°E)
Time: 03:53:12
(UTC+00:00)

NPP - Pass Details

Date: 13 July 2020
Orbit: 826 x 828 km, 98.7° (Epoch: 11 August)

Event Time Altitude Azimuth Distance (km) Brightness Sun altitude
Rises 23:40:46 0° 10° (N) 3,367 7.8 -31.7°
Reaches altitude 10° 23:43:07 10° 8° (N) 2,431 6.9 -31.5°
Enters shadow 23:47:20 55° 350° (N) 989 4.1 -31.1°
